Regional Weather Roundup
Issued by NWS

Home | Current Version | Previous Version | Text Only | Print | Product List | Glossary Off
Versions: 1 2 3 4 5 6 7 8 9 10 11 12 13 14 15 16 17 18 19 20 21 22 23 24 25 26 27 28 29 30 31 32 33 34 35 36 37 38 39 40 41 42 43 44 45 46 47 48 49 50

000
ASUS43 KOAX 240910
RWRNE

WEATHER ROUNDUP FOR NEBRASKA
NATIONAL WEATHER SERVICE OMAHA NE
400 AM CDT SUN MAY 24 2015

NOTES: SATELLITE DATA IS BEING USED TO AUGMENT CLOUD COVER ABOVE
       12000 FEET.
       "FAIR" INDICATES FEW OR NO CLOUDS BELOW 12,000 FEET WITH NO
       SIGNIFICANT WEATHER AND/OR OBSTRUCTIONS TO VISIBILITY.

  * THESE STATIONS DO NOT REPORT WEATHER SUCH AS RAIN...SNOW OR FOG.

NEZ001>004-019>022-054>056-241000-
NEBRASKA PANHANDLE

CITY           SKY/WX    TMP DP  RH WIND       PRES   REMARKS
SCOTTSBLUFF    CLOUDY    52  50  93 SE6       29.92S
ALLIANCE       LGT RAIN  51  50  96 SE8       29.92S
CHADRON        CLOUDY    53  51  93 E7        29.92F
KIMBALL          N/A    N/A N/A N/A MISG        N/A
SIDNEY         LGT RAIN  50  49  96 E5        29.91F FOG
$$

NEZ057>060-069>072-079>082-241000-
SOUTHWEST NEBRASKA

CITY           SKY/WX    TMP DP  RH WIND       PRES   REMARKS
NORTH PLATTE   CLOUDY    56  55  97 SE7       29.91F
IMPERIAL       CLOUDY    55  54  96 SE9       29.90F
LEXINGTON      FOG       58  57  97 SE7       29.90F VSB 1
MCCOOK         CLOUDY    57  56  96 S6        29.91S FOG
OGALLALA       DRIZZLE   55  54  99 SE6       29.91S
$$

NEZ005>010-023>029-035>040-094-241000-
NORTH CENTRAL NEBRASKA

CITY           SKY/WX    TMP DP  RH WIND       PRES   REMARKS
VALENTINE      CLOUDY    54  53  97 E12       29.96F
AINSWORTH      FOG       55  55 100 E10       29.95F VSB 1/2
BROKEN BOW     FOG       58  57  97 E8        29.91F VSB 1/2
O`NEILL        FOG       57  57  98 E7        29.96F VSB 1/4
ORD            CLOUDY    57  56  96 E7        29.90F FOG
THEDFORD       LGT RAIN  55  55  98 E8        29.93F
$$

NEZ041-046>049-061>064-073>077-083>087-241000-
SOUTH CENTRAL NEBRASKA

CITY           SKY/WX    TMP DP  RH WIND       PRES   REMARKS
GRAND ISLAND   CLOUDY    59  58  96 E12       29.89F FOG
AURORA         CLOUDY    59  59 100 E10       29.89F FOG
HASTINGS       CLOUDY    59  58  96 E7        29.89S FOG
HEBRON         DRIZZLE   60  58  93 NE3       29.88S
HOLDREGE       FOG       57  56  96 SE5       29.90S VSB 1/2
KEARNEY *      CLOUDY    57  55  94 SE8       29.90S
YORK           LGT RAIN  59  59 100 E10       29.90F
$$

NEZ011>018-030>034-042>045-241000-
NORTHEAST NEBRASKA

CITY           SKY/WX    TMP DP  RH WIND       PRES   REMARKS
NORFOLK        CLOUDY   N/A N/A N/A E9        29.93F HAZE
ALBION         CLOUDY    58  56  92 E7        29.92F FOG
BLAIR          LGT RAIN  59  57  94 NE13      29.93F
COLUMBUS *     CLOUDY    59  54  82 E14       29.94F
FREMONT        LGT RAIN  61  59  94 E12       29.92F
TEKAMAH        LGT RAIN  61  59  93 E13       29.94F
WAYNE          CLOUDY    60  59  96 E8        29.96F
$$

NEZ050>053-065>068-078-088>093-241000-
SOUTHEAST NEBRASKA

CITY           SKY/WX    TMP DP  RH WIND       PRES   REMARKS
LINCOLN        CLOUDY    61  59  93 E10       29.89F
OMAHA EPPLEY   LGT RAIN  60  59  96 NE7       29.93F FOG
BEATRICE       CLOUDY    60  59  97 E10       29.87F
FALLS CITY     CLOUDY    62  60  93 E8        29.88F
NEBRASKA CITY  DRIZZLE   60  60 100 E8        29.90F
PLATTSMOUTH    CLOUDY    59  58  94 NE12      29.91F FOG
$$

NEZ044-045-051>053-067-241000-
OMAHA AREA

CITY           SKY/WX    TMP DP  RH WIND       PRES   REMARKS
OMAHA EPPLEY   LGT RAIN  60  59  96 NE7       29.93F FOG
BLAIR          LGT RAIN  59  57  94 NE13      29.93F
FREMONT        LGT RAIN  61  59  94 E12       29.92F
MILLARD        DRIZZLE   61  59  94 E7        29.91F
OFFUTT AFB     CLOUDY    61  59  94 NE9       29.91F
PLATTSMOUTH    CLOUDY    59  58  94 NE12      29.91F FOG
WAHOO          CLOUDY    60  59  95 E13       29.91F FOG
$$



USA.gov is the U.S. government's official web portal to all federal, state and local government web resources and services.